This demonstration page uses our WeatherBlox Daily Observations layout. Learn more.

Left ArrowRight Arrow

38.88101, -77.10428

Hourly Observations for May 3, 2022

Temp ( °F °C ) Dew Point ( °F °C ) Humidity (%) Winds ( mph kmh ) Pressure ( in mb ) Visibility ( mi km ) Precip ( " mm )
12:52 am 00:52 Clear 62 16.7 55 12.8 78 78 N 7 11 30.04 1017 10 16 0.00 0.00
1:52 am 01:52 Clear 61 16.1 55 12.8 81 81 NNE 7 11 30.05 1018 10 16 0.00 0.00
2:52 am 02:52 Clear 62 16.7 51 10.6 67 67 NNE 8 13 30.03 1017 10 16 0.00 0.00
3:52 am 03:52 Clear 61 16.1 51 10.6 70 70 NNE 8 13 30.04 1017 10 16 0.00 0.00
4:52 am 04:52 Clear 59 15 52 11.1 78 78 NNE 10 17 30.05 1018 10 16 0.00 0.00
5:17 am 05:17 Mostly Cloudy 59 15 53 11.7 81 81 NE 12 19 30.06 1018 10 16 0.00 0.00
5:39 am 05:39 Cloudy 59 15 55 12.8 87 87 NE 14 22 30.07 1018 7 11 0.00 0.00
5:52 am 05:52 Cloudy with Mist and Fog 59 15 55 12.8 87 87 NE 13 20 30.07 1018 6 10 0.00 0.00
6:13 am 06:13 Cloudy with Mist and Fog 58 14.4 56 13.3 93 93 ENE 10 17 30.08 1019 3 4 0.00 0.00
6:33 am 06:33 Cloudy with Mist and Fog 58 14.4 56 13.3 93 93 ENE 12 19 30.08 1019 1 2 0.00 0.00
6:52 am 06:52 Cloudy with Drizzle 59 15 56 13.3 90 90 ENE 9 15 30.08 1019 1 2 0.00 0.00
7:52 am 07:52 Cloudy with Mist and Fog 58 14.4 55 12.8 90 90 ENE 10 17 30.10 1019 2 2 0.00 0.00
8:45 am 08:45 Cloudy with Mist and Fog 58 14.4 55 12.8 90 90 NE 13 20 30.12 1020 3 4 0.00 0.00
8:52 am 08:52 Cloudy with Mist and Fog 58 14.4 55 12.8 90 90 ENE 10 17 30.12 1020 3 4 0.00 0.00
9:04 am 09:04 Cloudy with Mist and Fog 58 14.4 55 12.8 90 90 E 8 13 30.12 1020 3 5 0.00 0.00
9:47 am 09:47 Cloudy with Haze 59 15 54 12 82 82 ESE 9 15 30.14 1021 6 10 0.00 0.00
9:52 am 09:52 Cloudy with Haze 59 15 54 12.2 83 83 E 9 15 30.14 1021 5 8 0.00 0.00
10:52 am 10:52 Cloudy with Haze 60 15.6 54 12.2 80 80 E 10 17 30.13 1020 4 6 0.00 0.00
11:09 am 11:09 Cloudy with Haze 60 15.6 54 12.2 80 80 E 9 15 30.13 1020 5 8 0.00 0.00
11:52 am 11:52 Cloudy with Haze 61 16.1 54 12.2 78 78 ESE 6 9 30.13 1020 5 8 0.00 0.00
12:31 pm 12:31 Cloudy 63 17.2 55 12.8 76 76 E 9 15 30.12 1020 7 11 0.00 0.00
12:52 pm 12:52 Cloudy 64 17.8 55 12.8 73 73 E 9 15 30.11 1020 7 11 0.00 0.00
1:52 pm 13:52 Cloudy 67 19.4 55 12.8 66 66 SW 3 6 30.10 1019 9 14 0.00 0.00
2:43 pm 14:43 Mostly Cloudy 71 21.7 56 13.3 59 59 VRB 3 6 30.08 1019 10 16 0.00 0.00
2:52 pm 14:52 Mostly Cloudy 71 21.7 57 13.9 61 61 VRB 3 6 30.07 1018 10 16 0.00 0.00
3:52 pm 15:52 Mostly Sunny 73 22.8 58 14.4 59 59 SSE 7 11 30.05 1018 10 16 0.00 0.00
4:52 pm 16:52 Mostly Cloudy 74 23.3 57 13.9 56 56 ESE 10 17 30.02 1017 10 16 0.00 0.00
5:52 pm 17:52 Partly Cloudy 73 22.8 56 13.3 55 55 ESE 14 22 30.01 1016 10 16 0.00 0.00
6:52 pm 18:52 Mostly Cloudy 72 22.2 56 13.3 57 57 SE 14 22 30.00 1016 10 16 0.00 0.00
7:52 pm 19:52 Mostly Cloudy 69 20.6 56 13.3 63 63 ESE 13 20 29.98 1015 10 16 0.00 0.00
8:52 pm 20:52 Mostly Cloudy 66 18.9 56 13.3 70 70 ESE 12 19 29.99 1016 10 16 0.00 0.00
9:08 pm 21:08 Mostly Cloudy 65 18.3 57 13.9 76 76 SE 12 19 29.99 1016 10 16 0.00 0.00
9:52 pm 21:52 Cloudy 64 17.8 55 12.8 73 73 SE 8 13 30.01 1016 10 16 0.00 0.00
10:48 pm 22:48 Cloudy 63 17 55 13 77 77 SSE 16 26 30.01 1016 10 16 0.00 0.00
10:52 pm 22:52 Cloudy 61 16.1 56 13.3 84 84 SE 15 24 30.01 1016 10 16 0.00 0.00
11:33 pm 23:33 Cloudy 60 15.6 55 12.8 84 84 SE 10 17 30.01 1016 10 16 0.00 0.00
11:52 pm 23:52 Cloudy 59 15 55 12.8 87 87 SE 7 11 30.02 1017 9 14 0.00 0.00

Powered by AerisWeather